Location: Gugi
(45.4667°N, 11.1000°E)
Time: 03:59:04
(UTC+00:00)

Cosmos 2344 - Pass Details

Date: 17 November 2019
Orbit: 1258 x 2984 km, 63.3° (Epoch: 09 December)

Event Time Altitude Azimuth Distance (km) Brightness Sun altitude
Rises 16:38:03 0° 242° (WSW) 4,231 8.3 -9.6°
Reaches altitude 10° 16:40:54 10° 248° (WSW) 3,238 7.3 -10.1°
Maximum altitude 16:48:06 47° 322° (NW) 1,673 4.4 -11.3°
Drops below altitude 10° 16:56:18 10° 36° (NE) 3,672 5.5 -12.7°
Enters shadow 16:57:38 - 39° (NE) 4,125 5.8 -12.9°
